Time,TemperatureF,DewpointF,PressureIn,WindDirection,WindDirectionDegrees,WindSpeedMPH,WindSpeedGustMPH,Humidity,HourlyPrecipIn,Conditions,Clouds,dailyrainin,SoftwareType,DateUTC
2013-12-07 00:02:00,35.0,35.0,29.09,West,276,2.0,-999.0,99,0.00,,,-99.99,,2013-12-07 09:02:00,
2013-12-07 00:07:00,34.8,34.8,29.07,NW,326,2.6,-999.0,99,0.00,,,-99.99,,2013-12-07 09:07:00,
2013-12-07 00:12:00,34.8,34.8,29.10,West,280,4.0,-999.0,99,0.00,,,-99.99,,2013-12-07 09:12:00,
2013-12-07 00:17:00,34.9,34.9,29.08,North,2,6.8,-999.0,99,0.00,,,-99.99,,2013-12-07 09:17:00,
2013-12-07 00:22:00,34.8,34.8,29.08,North,10,0.8,-999.0,99,0.00,,,-99.99,,2013-12-07 09:22:00,
2013-12-07 00:27:00,34.8,34.8,29.08,WNW,299,1.0,-999.0,99,0.00,,,-99.99,,2013-12-07 09:27:00,
2013-12-07 00:32:00,34.9,34.9,29.08,WSW,246,7.8,-999.0,99,0.00,,,-99.99,,2013-12-07 09:32:00,
2013-12-07 00:37:00,34.8,34.8,29.08,SSW,203,7.3,-999.0,99,0.00,,,-99.99,,2013-12-07 09:37:00,
2013-12-07 00:42:00,35.0,35.0,29.08,SSE,165,1.6,-999.0,99,0.00,,,-99.99,,2013-12-07 09:42:00,
2013-12-07 00:47:00,34.8,34.8,29.09,East,87,3.2,-999.0,99,0.00,,,-99.99,,2013-12-07 09:47:00,
2013-12-07 00:52:00,35.0,35.0,29.08,SSE,160,1.0,-999.0,99,0.00,,,-99.99,,2013-12-07 09:52:00,
2013-12-07 00:57:00,34.8,34.8,29.07,NE,50,0.8,-999.0,99,0.00,,,-99.99,,2013-12-07 09:57:00,
2013-12-07 01:02:00,35.0,34.9,29.08,East,97,5.5,-999.0,99,0.00,,,-99.99,,2013-12-07 10:02:00,
2013-12-07 01:07:00,34.9,34.9,29.08,WNW,285,2.1,-999.0,99,0.00,,,-99.99,,2013-12-07 10:07:00,
2013-12-07 01:12:00,34.9,34.9,29.09,NNE,16,1.6,-999.0,99,0.00,,,-99.99,,2013-12-07 10:12:00,
2013-12-07 01:17:00,34.9,34.9,29.08,SW,227,3.5,-999.0,99,0.00,,,-99.99,,2013-12-07 10:17:00,
2013-12-07 01:22:00,34.9,34.9,29.08,East,87,0.4,-999.0,99,0.00,,,-99.99,,2013-12-07 10:22:00,
2013-12-07 01:27:00,35.0,35.0,29.08,SSE,150,0.2,-999.0,99,0.00,,,-99.99,,2013-12-07 10:27:00,
2013-12-07 01:32:00,35.0,35.0,29.08,NW,322,0.9,-999.0,99,0.00,,,-99.99,,2013-12-07 10:32:00,
2013-12-07 01:37:00,34.9,34.9,29.08,SSE,158,2.8,-999.0,99,0.00,,,-99.99,,2013-12-07 10:37:00,
2013-12-07 01:42:00,34.8,34.8,29.09,SSW,201,4.1,-999.0,99,0.00,,,-99.99,,2013-12-07 10:42:00,
2013-12-07 01:47:00,34.8,34.8,29.09,ENE,63,1.7,-999.0,99,0.00,,,-99.99,,2013-12-07 10:47:00,
2013-12-07 01:52:00,34.8,34.8,29.07,North,4,1.7,-999.0,99,0.00,,,-99.99,,2013-12-07 10:52:00,
2013-12-07 01:57:00,34.7,34.7,29.07,South,182,2.8,-999.0,99,0.00,,,-99.99,,2013-12-07 10:57:00,
2013-12-07 02:02:00,34.7,34.6,29.06,NNE,31,2.8,-999.0,99,0.00,,,-99.99,,2013-12-07 11:02:00,
2013-12-07 02:07:00,34.8,34.8,29.08,East,87,3.1,-999.0,99,0.00,,,-99.99,,2013-12-07 11:07:00,
2013-12-07 02:12:00,34.7,34.7,29.08,SSE,151,2.5,-999.0,99,0.00,,,-99.99,,2013-12-07 11:12:00,
2013-12-07 02:17:00,34.6,34.6,29.07,NE,42,1.6,-999.0,99,0.00,,,-99.99,,2013-12-07 11:17:00,
2013-12-07 02:22:00,34.5,34.5,29.06,NNW,347,9.2,-999.0,99,0.00,,,-99.99,,2013-12-07 11:22:00,
2013-12-07 02:27:00,34.5,34.5,29.07,NNW,335,2.1,-999.0,99,0.00,,,-99.99,,2013-12-07 11:27:00,
2013-12-07 02:32:00,34.5,34.5,29.06,West,275,3.9,-999.0,99,0.00,,,-99.99,,2013-12-07 11:32:00,
2013-12-07 02:37:00,34.6,34.6,29.07,NE,42,4.7,-999.0,99,0.00,,,-99.99,,2013-12-07 11:37:00,
2013-12-07 02:42:00,34.5,34.5,29.06,ENE,58,2.8,-999.0,99,0.00,,,-99.99,,2013-12-07 11:42:00,
2013-12-07 02:47:00,34.7,34.7,29.06,East,91,2.0,-999.0,99,0.00,,,-99.99,,2013-12-07 11:47:00,
2013-12-07 02:52:00,34.8,34.8,29.08,ENE,74,1.7,-999.0,100,0.00,,,-99.99,,2013-12-07 11:52:00,
2013-12-07 02:57:00,34.8,34.8,29.07,ESE,119,1.4,-999.0,99,0.00,,,-99.99,,2013-12-07 11:57:00,
2013-12-07 03:02:00,34.5,34.5,29.07,WSW,253,3.1,-999.0,99,0.00,,,-99.99,,2013-12-07 12:02:00,
2013-12-07 03:07:00,34.5,34.5,29.06,North,349,2.4,-999.0,99,0.00,,,-99.99,,2013-12-07 12:07:00,
2013-12-07 03:12:00,34.5,34.5,29.05,WSW,252,0.4,-999.0,99,0.00,,,-99.99,,2013-12-07 12:12:00,
2013-12-07 03:17:00,34.7,34.6,29.06,SW,223,1.8,-999.0,99,0.00,,,-99.99,,2013-12-07 12:17:00,
2013-12-07 03:22:00,34.5,34.5,29.06,East,90,3.6,-999.0,99,0.00,,,-99.99,,2013-12-07 12:22:00,
2013-12-07 03:27:00,34.7,34.7,29.05,North,2,1.7,-999.0,100,0.00,,,-99.99,,2013-12-07 12:27:00,
2013-12-07 03:32:00,34.6,34.6,29.08,WNW,289,4.2,-999.0,99,0.00,,,-99.99,,2013-12-07 12:32:00,
2013-12-07 03:37:00,34.7,34.7,29.06,NE,36,1.0,-999.0,99,0.00,,,-99.99,,2013-12-07 12:37:00,
2013-12-07 03:42:00,34.5,34.5,29.06,WNW,288,3.2,-999.0,100,0.00,,,-99.99,,2013-12-07 12:42:00,
2013-12-07 03:47:00,34.4,34.4,29.06,NNE,18,4.0,-999.0,99,0.00,,,-99.99,,2013-12-07 12:47:00,
2013-12-07 03:52:00,34.4,34.4,29.07,ENE,78,1.8,-999.0,99,0.00,,,-99.99,,2013-12-07 12:52:00,
2013-12-07 03:57:00,34.2,34.2,29.07,NE,41,2.2,-999.0,99,0.00,,,-99.99,,2013-12-07 12:57:00,
2013-12-07 04:02:00,34.2,34.2,29.06,NNE,19,2.8,-999.0,99,0.00,,,-99.99,,2013-12-07 13:02:00,
2013-12-07 04:07:00,34.2,34.2,29.08,NNE,30,1.5,-999.0,100,0.00,,,-99.99,,2013-12-07 13:07:00,
2013-12-07 04:12:00,34.4,34.4,29.07,SE,125,2.6,-999.0,99,0.00,,,-99.99,,2013-12-07 13:12:00,
2013-12-07 04:17:00,34.5,34.5,29.07,NW,312,0.3,-999.0,99,0.00,,,-99.99,,2013-12-07 13:17:00,
2013-12-07 04:22:00,34.6,34.6,29.06,East,83,0.6,-999.0,99,0.00,,,-99.99,,2013-12-07 13:22:00,
2013-12-07 04:27:00,34.7,34.7,29.08,North,0,1.1,-999.0,99,0.00,,,-99.99,,2013-12-07 13:27:00,
2013-12-07 04:32:00,34.7,34.6,29.08,WNW,287,5.0,-999.0,99,0.00,,,-99.99,,2013-12-07 13:32:00,
2013-12-07 04:37:00,34.5,34.5,29.07,NNW,333,2.6,-999.0,99,0.00,,,-99.99,,2013-12-07 13:37:00,
2013-12-07 04:42:00,34.5,34.5,29.05,West,274,2.9,-999.0,99,0.00,,,-99.99,,2013-12-07 13:42:00,
2013-12-07 04:47:00,34.3,34.3,29.05,WNW,302,0.4,-999.0,99,0.00,,,-99.99,,2013-12-07 13:47:00,
2013-12-07 04:52:00,34.2,34.2,29.06,East,88,1.5,-999.0,99,0.00,,,-99.99,,2013-12-07 13:52:00,
2013-12-07 04:57:00,34.3,34.3,29.06,ENE,60,3.0,-999.0,99,0.00,,,-99.99,,2013-12-07 13:57:00,
2013-12-07 05:02:00,34.2,34.2,29.06,WSW,251,4.9,-999.0,99,0.00,,,-99.99,,2013-12-07 14:02:00,
2013-12-07 05:07:00,34.2,34.2,29.07,NNE,13,3.1,-999.0,99,0.00,,,-99.99,,2013-12-07 14:07:00,
2013-12-07 05:12:00,34.2,34.2,29.05,South,180,2.6,-999.0,100,0.00,,,-99.99,,2013-12-07 14:12:00,
2013-12-07 05:17:00,34.1,34.1,29.05,SSW,209,0.3,-999.0,100,0.00,,,-99.99,,2013-12-07 14:17:00,
2013-12-07 05:22:00,33.9,33.9,29.05,WNW,287,4.2,-999.0,100,0.00,,,-99.99,,2013-12-07 14:22:00,
2013-12-07 05:27:00,33.8,33.8,29.07,South,188,4.1,-999.0,100,0.00,,,-99.99,,2013-12-07 14:27:00,
2013-12-07 05:32:00,33.8,33.8,29.07,NNW,342,2.2,-999.0,99,0.00,,,-99.99,,2013-12-07 14:32:00,
2013-12-07 05:37:00,34.1,34.1,29.06,NW,312,2.2,-999.0,100,0.00,,,-99.99,,2013-12-07 14:37:00,
2013-12-07 05:42:00,33.9,33.9,29.04,West,274,4.7,-999.0,100,0.00,,,-99.99,,2013-12-07 14:42:00,
2013-12-07 05:47:00,34.0,34.0,29.05,NNW,342,3.8,-999.0,100,0.00,,,-99.99,,2013-12-07 14:47:00,
2013-12-07 05:52:00,33.9,33.9,29.07,North,1,2.4,-999.0,100,0.00,,,-99.99,,2013-12-07 14:52:00,
2013-12-07 05:57:00,33.7,33.7,29.06,NW,311,1.8,-999.0,100,0.00,,,-99.99,,2013-12-07 14:57:00,
2013-12-07 06:02:00,33.5,33.5,29.06,North,7,0.3,-999.0,100,0.00,,,-99.99,,2013-12-07 15:02:00,
2013-12-07 06:07:00,33.7,33.7,29.05,NNW,333,1.7,-999.0,100,0.00,,,-99.99,,2013-12-07 15:07:00,
2013-12-07 06:12:00,33.8,33.8,29.06,North,6,1.3,-999.0,100,0.00,,,-99.99,,2013-12-07 15:12:00,
2013-12-07 06:17:00,33.9,33.9,29.04,East,81,6.7,-999.0,99,0.00,,,-99.99,,2013-12-07 15:17:00,
2013-12-07 06:22:00,33.8,33.8,29.05,WNW,288,7.8,-999.0,100,0.00,,,-99.99,,2013-12-07 15:22:00,
2013-12-07 06:27:00,33.8,33.8,29.06,WNW,298,8.4,-999.0,100,0.00,,,-99.99,,2013-12-07 15:27:00,
2013-12-07 06:32:00,33.8,33.8,29.05,NNE,32,1.5,-999.0,100,0.00,,,-99.99,,2013-12-07 15:32:00,
2013-12-07 06:37:00,33.7,33.7,29.04,ENE,62,9.9,-999.0,100,0.00,,,-99.99,,2013-12-07 15:37:00,
2013-12-07 06:42:00,33.9,33.9,29.04,SSW,194,3.1,-999.0,100,0.00,,,-99.99,,2013-12-07 15:42:00,
2013-12-07 06:47:00,33.8,33.8,29.05,SW,217,1.1,-999.0,100,0.00,,,-99.99,,2013-12-07 15:47:00,
2013-12-07 06:52:00,33.6,33.6,29.05,East,79,2.7,-999.0,99,0.00,,,-99.99,,2013-12-07 15:52:00,
2013-12-07 06:57:00,33.6,33.6,29.05,ENE,76,0.7,-999.0,100,0.00,,,-99.99,,2013-12-07 15:57:00,
2013-12-07 07:02:00,33.6,33.6,29.05,ENE,60,3.4,-999.0,100,0.00,,,-99.99,,2013-12-07 16:02:00,
2013-12-07 07:07:00,33.5,33.5,29.04,WNW,299,4.7,-999.0,100,0.00,,,-99.99,,2013-12-07 16:07:00,
2013-12-07 07:12:00,33.4,33.4,29.05,NNE,17,3.9,-999.0,100,0.00,,,-99.99,,2013-12-07 16:12:00,
2013-12-07 07:17:00,33.5,33.5,29.07,NNW,348,1.1,-999.0,100,0.00,,,-99.99,,2013-12-07 16:17:00,
2013-12-07 07:22:00,33.6,33.6,29.05,North,0,1.2,-999.0,100,0.00,,,-99.99,,2013-12-07 16:22:00,
2013-12-07 07:27:00,33.7,33.7,29.07,SSW,210,2.0,-999.0,100,0.00,,,-99.99,,2013-12-07 16:27:00,
2013-12-07 07:32:00,33.6,33.6,29.04,SW,214,5.8,-999.0,100,0.00,,,-99.99,,2013-12-07 16:32:00,
2013-12-07 07:37:00,33.5,33.5,29.03,ENE,60,1.1,-999.0,99,0.00,,,-99.99,,2013-12-07 16:37:00,
2013-12-07 07:42:00,33.8,33.8,29.04,ESE,106,1.3,-999.0,99,0.00,,,-99.99,,2013-12-07 16:42:00,
2013-12-07 07:47:00,33.6,33.6,29.05,East,91,1.9,-999.0,100,0.00,,,-99.99,,2013-12-07 16:47:00,
2013-12-07 07:52:00,33.8,33.8,29.05,WSW,252,2.7,-999.0,99,0.00,,,-99.99,,2013-12-07 16:52:00,
2013-12-07 07:57:00,33.8,33.8,29.05,SE,143,0.6,-999.0,99,0.00,,,-99.99,,2013-12-07 16:57:00,
2013-12-07 08:02:00,34.1,34.0,29.05,NNE,22,1.6,-999.0,99,0.00,,,-99.99,,2013-12-07 17:02:00,
2013-12-07 08:07:00,33.8,33.8,29.04,West,263,1.9,-999.0,99,0.00,,,-99.99,,2013-12-07 17:07:00,
2013-12-07 08:12:00,34.1,34.0,29.07,East,81,3.1,-999.0,99,0.00,,,-99.99,,2013-12-07 17:12:00,
2013-12-07 08:17:00,34.1,34.0,29.05,NNE,23,0.4,-999.0,99,0.00,,,-99.99,,2013-12-07 17:17:00,
2013-12-07 08:22:00,34.1,34.1,29.05,NW,321,4.5,-999.0,99,0.00,,,-99.99,,2013-12-07 17:22:00,
2013-12-07 08:27:00,34.2,34.2,29.04,NE,45,1.0,-999.0,99,0.00,,,-99.99,,2013-12-07 17:27:00,
2013-12-07 08:32:00,34.2,34.2,29.04,NNE,26,2.8,-999.0,99,0.00,,,-99.99,,2013-12-07 17:32:00,
2013-12-07 08:37:00,34.3,34.3,29.05,North,10,0.2,-999.0,99,0.00,,,-99.99,,2013-12-07 17:37:00,
2013-12-07 08:42:00,34.1,34.0,29.06,NNW,332,1.5,-999.0,99,0.00,,,-99.99,,2013-12-07 17:42:00,
2013-12-07 08:47:00,34.3,34.3,29.05,East,97,3.6,-999.0,99,0.00,,,-99.99,,2013-12-07 17:47:00,
2013-12-07 08:52:00,34.3,34.3,29.07,ENE,67,0.2,-999.0,99,0.00,,,-99.99,,2013-12-07 17:52:00,
2013-12-07 08:57:00,34.4,34.3,29.05,West,275,12.9,-999.0,99,0.00,,,-99.99,,2013-12-07 17:57:00,
2013-12-07 09:02:00,34.4,34.3,29.06,WNW,285,4.5,-999.0,99,0.00,,,-99.99,,2013-12-07 18:02:00,
2013-12-07 09:07:00,34.3,34.3,29.06,WNW,288,2.1,-999.0,99,0.00,,,-99.99,,2013-12-07 18:07:00,
2013-12-07 09:12:00,34.3,34.3,29.07,SE,145,0.6,-999.0,99,0.00,,,-99.99,,2013-12-07 18:12:00,
2013-12-07 09:17:00,34.2,34.2,29.06,West,275,0.7,-999.0,99,0.00,,,-99.99,,2013-12-07 18:17:00,
2013-12-07 09:22:00,34.5,34.5,29.06,NNE,22,2.4,-999.0,99,0.00,,,-99.99,,2013-12-07 18:22:00,
2013-12-07 09:27:00,34.4,34.3,29.05,SSE,165,1.6,-999.0,99,0.00,,,-99.99,,2013-12-07 18:27:00,
2013-12-07 09:32:00,34.4,34.3,29.05,North,6,2.8,-999.0,99,0.00,,,-99.99,,2013-12-07 18:32:00,
2013-12-07 09:37:00,34.5,34.5,29.06,SE,128,0.8,-999.0,99,0.00,,,-99.99,,2013-12-07 18:37:00,
2013-12-07 09:42:00,34.3,34.3,29.06,SW,235,1.1,-999.0,99,0.00,,,-99.99,,2013-12-07 18:42:00,
2013-12-07 09:47:00,34.2,34.1,29.06,ESE,103,2.0,-999.0,99,0.00,,,-99.99,,2013-12-07 18:47:00,
2013-12-07 09:52:00,34.3,34.2,29.05,West,276,4.9,-999.0,99,0.00,,,-99.99,,2013-12-07 18:52:00,
2013-12-07 09:57:00,34.4,34.3,29.07,West,259,0.5,-999.0,99,0.00,,,-99.99,,2013-12-07 18:57:00,
2013-12-07 10:02:00,34.4,34.3,29.06,WNW,293,0.5,-999.0,99,0.00,,,-99.99,,2013-12-07 19:02:00,
2013-12-07 10:07:00,34.5,34.5,29.06,SSE,148,1.9,-999.0,99,0.00,,,-99.99,,2013-12-07 19:07:00,
2013-12-07 10:12:00,34.4,34.3,29.07,WSW,250,2.0,-999.0,99,0.00,,,-99.99,,2013-12-07 19:12:00,
2013-12-07 10:17:00,34.3,34.3,29.07,East,88,1.8,-999.0,99,0.00,,,-99.99,,2013-12-07 19:17:00,
2013-12-07 10:22:00,34.4,34.4,29.06,ESE,118,1.0,-999.0,99,0.00,,,-99.99,,2013-12-07 19:22:00,
2013-12-07 10:27:00,34.2,34.2,29.06,South,171,4.7,-999.0,99,0.00,,,-99.99,,2013-12-07 19:27:00,
2013-12-07 10:32:00,34.3,34.2,29.06,South,190,4.0,-999.0,99,0.00,,,-99.99,,2013-12-07 19:32:00,
2013-12-07 10:37:00,34.4,34.3,29.06,SSE,150,3.7,-999.0,99,0.00,,,-99.99,,2013-12-07 19:37:00,
2013-12-07 10:42:00,34.4,34.3,29.07,WNW,290,2.5,-999.0,99,0.00,,,-99.99,,2013-12-07 19:42:00,
2013-12-07 10:47:00,34.4,34.3,29.07,West,270,2.9,-999.0,99,0.00,,,-99.99,,2013-12-07 19:47:00,
2013-12-07 10:52:00,34.4,34.3,29.06,NNE,32,3.2,-999.0,99,0.00,,,-99.99,,2013-12-07 19:52:00,
2013-12-07 10:57:00,34.4,34.3,29.07,WSW,257,0.8,-999.0,99,0.00,,,-99.99,,2013-12-07 19:57:00,
2013-12-07 11:02:00,34.4,34.2,29.07,NW,317,1.6,-999.0,99,0.00,,,-99.99,,2013-12-07 20:02:00,
2013-12-07 11:07:00,34.5,34.3,29.07,WNW,282,1.5,-999.0,99,0.00,,,-99.99,,2013-12-07 20:07:00,
2013-12-07 11:12:00,34.5,34.3,29.07,North,351,0.8,-999.0,99,0.00,,,-99.99,,2013-12-07 20:12:00,
2013-12-07 11:17:00,34.5,34.2,29.06,SSE,168,2.8,-999.0,98,0.00,,,-99.99,,2013-12-07 20:17:00,
2013-12-07 11:22:00,34.5,34.2,29.06,South,187,1.9,-999.0,98,0.00,,,-99.99,,2013-12-07 20:22:00,
2013-12-07 11:27:00,34.4,34.1,29.06,East,87,3.5,-999.0,98,0.00,,,-99.99,,2013-12-07 20:27:00,
2013-12-07 11:32:00,34.5,34.2,29.07,ENE,74,1.5,-999.0,98,0.00,,,-99.99,,2013-12-07 20:32:00,
2013-12-07 11:37:00,34.6,34.2,29.06,East,92,2.5,-999.0,98,0.00,,,-99.99,,2013-12-07 20:37:00,
2013-12-07 11:42:00,34.6,34.2,29.07,ENE,66,1.4,-999.0,98,0.00,,,-99.99,,2013-12-07 20:42:00,
2013-12-07 11:47:00,34.6,34.2,29.06,SSW,198,1.3,-999.0,98,0.00,,,-99.99,,2013-12-07 20:47:00,
2013-12-07 11:52:00,34.7,34.3,29.06,SSE,165,1.6,-999.0,98,0.00,,,-99.99,,2013-12-07 20:52:00,
2013-12-07 11:57:00,34.6,34.1,29.06,SE,144,0.3,-999.0,97,0.00,,,-99.99,,2013-12-07 20:57:00,
2013-12-07 12:02:00,34.7,34.2,29.07,SSE,164,2.2,-999.0,97,0.00,,,-99.99,,2013-12-07 21:02:00,
2013-12-07 12:07:00,34.6,34.0,29.07,South,173,1.8,-999.0,97,0.00,,,-99.99,,2013-12-07 21:07:00,
2013-12-07 12:12:00,34.6,33.8,29.06,South,176,0.8,-999.0,96,0.00,,,-99.99,,2013-12-07 21:12:00,
2013-12-07 12:17:00,34.5,33.4,29.07,NNE,27,1.5,-999.0,95,0.00,,,-99.99,,2013-12-07 21:17:00,
2013-12-07 12:22:00,34.7,33.3,29.06,NNW,335,0.9,-999.0,94,0.00,,,-99.99,,2013-12-07 21:22:00,
2013-12-07 12:27:00,34.7,33.3,29.09,SE,146,3.0,-999.0,94,0.00,,,-99.99,,2013-12-07 21:27:00,
2013-12-07 12:32:00,34.7,33.4,29.07,NW,316,1.2,-999.0,95,0.00,,,-99.99,,2013-12-07 21:32:00,
2013-12-07 12:37:00,34.6,33.4,29.07,South,176,0.3,-999.0,95,0.00,,,-99.99,,2013-12-07 21:37:00,
2013-12-07 12:42:00,34.7,33.5,29.06,East,94,0.5,-999.0,95,0.00,,,-99.99,,2013-12-07 21:42:00,
2013-12-07 12:47:00,34.6,33.3,29.07,SSE,168,2.4,-999.0,94,0.00,,,-99.99,,2013-12-07 21:47:00,
2013-12-07 12:52:00,34.6,33.2,29.07,SW,219,2.8,-999.0,94,0.00,,,-99.99,,2013-12-07 21:52:00,
2013-12-07 12:57:00,34.7,33.2,29.07,NW,324,0.7,-999.0,94,0.00,,,-99.99,,2013-12-07 21:57:00,
2013-12-07 13:02:00,34.7,33.1,29.07,SW,236,3.4,-999.0,93,0.00,,,-99.99,,2013-12-07 22:02:00,
2013-12-07 13:07:00,34.7,33.2,29.07,SSE,162,2.4,-999.0,94,0.00,,,-99.99,,2013-12-07 22:07:00,
2013-12-07 13:12:00,34.7,33.4,29.07,ESE,109,1.2,-999.0,94,0.00,,,-99.99,,2013-12-07 22:12:00,
2013-12-07 13:17:00,34.6,33.3,29.07,SE,143,1.6,-999.0,95,0.00,,,-99.99,,2013-12-07 22:17:00,
2013-12-07 13:22:00,34.9,33.4,29.06,WSW,248,0.2,-999.0,94,0.00,,,-99.99,,2013-12-07 22:22:00,
2013-12-07 13:27:00,34.8,33.4,29.07,NW,319,1.8,-999.0,94,0.00,,,-99.99,,2013-12-07 22:27:00,
2013-12-07 13:32:00,34.9,33.5,29.08,NE,35,1.4,-999.0,94,0.00,,,-99.99,,2013-12-07 22:32:00,
2013-12-07 13:37:00,35.0,33.4,29.06,WSW,247,0.4,-999.0,93,0.00,,,-99.99,,2013-12-07 22:37:00,
2013-12-07 13:42:00,35.0,33.7,29.06,NW,324,3.7,-999.0,94,0.00,,,-99.99,,2013-12-07 22:42:00,
2013-12-07 13:47:00,34.9,33.7,29.06,NE,34,0.4,-999.0,95,0.00,,,-99.99,,2013-12-07 22:47:00,
2013-12-07 13:52:00,34.9,33.8,29.07,ENE,77,2.2,-999.0,95,0.00,,,-99.99,,2013-12-07 22:52:00,
2013-12-07 13:57:00,34.9,33.9,29.07,WNW,284,2.8,-999.0,96,0.00,,,-99.99,,2013-12-07 22:57:00,
2013-12-07 14:02:00,34.9,33.9,29.08,NW,308,2.7,-999.0,96,0.00,,,-99.99,,2013-12-07 23:02:00,
2013-12-07 14:07:00,34.8,33.8,29.06,SSE,147,5.7,-999.0,95,0.00,,,-99.99,,2013-12-07 23:07:00,
2013-12-07 14:12:00,34.7,33.8,29.08,WSW,258,3.4,-999.0,96,0.00,,,-99.99,,2013-12-07 23:12:00,
2013-12-07 14:17:00,34.9,34.0,29.06,SE,140,3.3,-999.0,96,0.00,,,-99.99,,2013-12-07 23:17:00,
2013-12-07 14:22:00,34.8,33.7,29.07,West,281,1.5,-999.0,95,0.00,,,-99.99,,2013-12-07 23:22:00,
2013-12-07 14:27:00,34.8,33.6,29.06,East,94,2.3,-999.0,95,0.00,,,-99.99,,2013-12-07 23:27:00,
2013-12-07 14:32:00,34.7,33.3,29.08,WSW,254,2.4,-999.0,94,0.00,,,-99.99,,2013-12-07 23:32:00,
2013-12-07 14:37:00,34.6,32.6,29.05,West,264,4.4,-999.0,92,0.00,,,-99.99,,2013-12-07 23:37:00,
2013-12-07 14:42:00,34.7,32.5,29.05,NE,53,0.4,-999.0,91,0.00,,,-99.99,,2013-12-07 23:42:00,
2013-12-07 14:47:00,34.7,32.4,29.05,ENE,57,2.5,-999.0,90,0.00,,,-99.99,,2013-12-07 23:47:00,
2013-12-07 14:52:00,34.6,32.3,29.06,WNW,294,2.8,-999.0,91,0.00,,,-99.99,,2013-12-07 23:52:00,
2013-12-07 14:57:00,34.7,32.6,29.06,SSE,156,1.3,-999.0,91,0.00,,,-99.99,,2013-12-07 23:57:00,
2013-12-07 15:02:00,34.7,32.9,29.07,SSE,159,2.4,-999.0,93,0.00,,,-99.99,,2013-12-08 00:02:00,
2013-12-07 15:07:00,34.7,32.8,29.05,WNW,287,1.1,-999.0,92,0.00,,,-99.99,,2013-12-08 00:07:00,
2013-12-07 15:12:00,34.4,32.4,29.06,NW,323,2.1,-999.0,92,0.00,,,-99.99,,2013-12-08 00:12:00,
2013-12-07 15:17:00,34.6,32.6,29.06,NNW,343,4.6,-999.0,92,0.00,,,-99.99,,2013-12-08 00:17:00,
2013-12-07 15:22:00,34.6,32.6,29.07,ESE,103,1.6,-999.0,92,0.00,,,-99.99,,2013-12-08 00:22:00,
2013-12-07 15:27:00,34.5,32.7,29.06,SSW,197,0.6,-999.0,92,0.00,,,-99.99,,2013-12-08 00:27:00,
2013-12-07 15:32:00,34.4,32.5,29.05,WNW,292,4.0,-999.0,92,0.00,,,-99.99,,2013-12-08 00:32:00,
2013-12-07 15:37:00,34.6,32.7,29.05,East,81,0.8,-999.0,92,0.00,,,-99.99,,2013-12-08 00:37:00,
2013-12-07 15:42:00,34.6,32.9,29.05,ESE,118,1.8,-999.0,93,0.00,,,-99.99,,2013-12-08 00:42:00,
2013-12-07 15:47:00,34.5,32.8,29.06,SE,134,0.8,-999.0,93,0.00,,,-99.99,,2013-12-08 00:47:00,
2013-12-07 15:52:00,34.4,32.5,29.06,SW,229,1.7,-999.0,92,0.00,,,-99.99,,2013-12-08 00:52:00,
2013-12-07 15:57:00,34.2,32.0,29.06,NE,48,2.5,-999.0,91,0.00,,,-99.99,,2013-12-08 00:57:00,
2013-12-07 16:02:00,34.2,32.0,29.05,SE,137,2.8,-999.0,91,0.00,,,-99.99,,2013-12-08 01:02:00,
2013-12-07 16:07:00,34.2,32.1,29.06,SSW,202,2.0,-999.0,91,0.00,,,-99.99,,2013-12-08 01:07:00,
2013-12-07 16:12:00,34.2,32.0,29.07,ESE,117,2.4,-999.0,91,0.00,,,-99.99,,2013-12-08 01:12:00,
2013-12-07 16:17:00,34.3,32.2,29.06,NNE,23,1.2,-999.0,92,0.00,,,-99.99,,2013-12-08 01:17:00,
2013-12-07 16:22:00,34.1,32.2,29.06,SSE,149,1.5,-999.0,92,0.00,,,-99.99,,2013-12-08 01:22:00,
2013-12-07 16:27:00,34.3,32.7,29.05,NNE,26,2.7,-999.0,93,0.00,,,-99.99,,2013-12-08 01:27:00,
2013-12-07 16:32:00,34.2,32.8,29.05,West,272,3.1,-999.0,94,0.00,,,-99.99,,2013-12-08 01:32:00,
2013-12-07 16:37:00,34.4,32.8,29.06,South,185,1.7,-999.0,93,0.00,,,-99.99,,2013-12-08 01:37:00,
2013-12-07 16:42:00,34.2,32.7,29.06,SSE,163,0.6,-999.0,93,0.00,,,-99.99,,2013-12-08 01:42:00,
2013-12-07 16:47:00,34.2,32.6,29.06,ENE,78,0.9,-999.0,93,0.00,,,-99.99,,2013-12-08 01:47:00,
2013-12-07 16:52:00,34.1,32.2,29.08,ENE,70,4.2,-999.0,92,0.00,,,-99.99,,2013-12-08 01:52:00,
2013-12-07 16:57:00,34.1,32.0,29.05,SW,228,0.4,-999.0,92,0.00,,,-99.99,,2013-12-08 01:57:00,
2013-12-07 17:02:00,34.1,31.9,29.05,WSW,248,3.4,-999.0,91,0.00,,,-99.99,,2013-12-08 02:02:00,
2013-12-07 17:07:00,34.1,32.0,29.06,WNW,303,6.6,-999.0,92,0.00,,,-99.99,,2013-12-08 02:07:00,
2013-12-07 17:12:00,34.0,32.0,29.07,NNE,16,6.7,-999.0,92,0.00,,,-99.99,,2013-12-08 02:12:00,
2013-12-07 17:17:00,34.0,32.1,29.06,SW,233,4.5,-999.0,92,0.00,,,-99.99,,2013-12-08 02:17:00,
2013-12-07 17:22:00,33.9,32.0,29.07,SW,215,1.0,-999.0,92,0.00,,,-99.99,,2013-12-08 02:22:00,
2013-12-07 17:27:00,34.0,32.2,29.07,WSW,238,3.6,-999.0,93,0.00,,,-99.99,,2013-12-08 02:27:00,
2013-12-07 17:32:00,34.1,32.5,29.06,WNW,286,0.6,-999.0,93,0.00,,,-99.99,,2013-12-08 02:32:00,
2013-12-07 17:37:00,34.1,32.5,29.07,SSW,207,2.5,-999.0,93,0.00,,,-99.99,,2013-12-08 02:37:00,
2013-12-07 17:42:00,34.1,32.3,29.07,NNW,333,3.5,-999.0,93,0.00,,,-99.99,,2013-12-08 02:42:00,
2013-12-07 17:47:00,34.0,32.2,29.06,NW,325,5.2,-999.0,92,0.00,,,-99.99,,2013-12-08 02:47:00,
2013-12-07 17:52:00,34.1,32.2,29.06,NW,312,17.1,-999.0,92,0.00,,,-99.99,,2013-12-08 02:52:00,
2013-12-07 17:57:00,34.1,32.3,29.05,ENE,78,1.3,-999.0,93,0.00,,,-99.99,,2013-12-08 02:57:00,
2013-12-07 18:02:00,33.9,32.4,29.06,WNW,282,0.6,-999.0,93,0.00,,,-99.99,,2013-12-08 03:02:00,
2013-12-07 18:07:00,34.0,32.3,29.07,WNW,283,15.4,-999.0,93,0.00,,,-99.99,,2013-12-08 03:07:00,
2013-12-07 18:12:00,33.9,32.5,29.08,WNW,301,21.5,-999.0,94,0.00,,,-99.99,,2013-12-08 03:12:00,
2013-12-07 18:17:00,34.1,32.3,29.07,NW,312,23.1,-999.0,93,0.00,,,-99.99,,2013-12-08 03:17:00,
2013-12-07 18:22:00,34.1,32.2,29.06,NW,307,20.4,-999.0,92,0.00,,,-99.99,,2013-12-08 03:22:00,
2013-12-07 18:27:00,33.9,31.7,29.06,WNW,302,20.8,-999.0,91,0.00,,,-99.99,,2013-12-08 03:27:00,
2013-12-07 18:32:00,34.1,31.7,29.06,NW,310,20.1,-999.0,90,0.00,,,-99.99,,2013-12-08 03:32:00,
2013-12-07 18:37:00,33.9,32.3,29.07,NNE,30,4.0,-999.0,93,0.00,,,-99.99,,2013-12-08 03:37:00,
2013-12-07 18:42:00,33.6,32.2,29.07,WNW,283,10.0,-999.0,94,0.00,,,-99.99,,2013-12-08 03:42:00,
2013-12-07 18:47:00,33.6,31.9,29.06,North,5,4.7,-999.0,93,0.00,,,-99.99,,2013-12-08 03:47:00,
2013-12-07 18:52:00,33.8,32.5,29.07,WNW,286,12.7,-999.0,95,0.00,,,-99.99,,2013-12-08 03:52:00,
2013-12-07 18:57:00,33.7,32.7,29.06,NW,304,14.6,-999.0,95,0.00,,,-99.99,,2013-12-08 03:57:00,
2013-12-07 19:02:00,33.9,32.3,29.07,WSW,252,15.7,-999.0,93,0.00,,,-99.99,,2013-12-08 04:02:00,
2013-12-07 19:07:00,33.8,31.8,29.06,NW,309,24.0,-999.0,92,0.00,,,-99.99,,2013-12-08 04:07:00,
2013-12-07 19:12:00,33.9,31.8,29.07,WNW,299,17.3,-999.0,91,0.00,,,-99.99,,2013-12-08 04:12:00,
2013-12-07 19:17:00,33.8,32.1,29.05,WNW,288,11.5,-999.0,93,0.00,,,-99.99,,2013-12-08 04:17:00,
2013-12-07 19:22:00,33.7,31.7,29.06,West,278,10.7,-999.0,92,0.00,,,-99.99,,2013-12-08 04:22:00,
2013-12-07 19:27:00,33.8,32.1,29.07,West,277,15.9,-999.0,93,0.00,,,-99.99,,2013-12-08 04:27:00,
2013-12-07 19:32:00,33.8,32.5,29.09,WNW,296,17.7,-999.0,94,0.00,,,-99.99,,2013-12-08 04:32:00,
2013-12-07 19:37:00,33.6,32.1,29.08,West,278,13.5,-999.0,94,0.00,,,-99.99,,2013-12-08 04:37:00,
2013-12-07 19:42:00,33.5,32.0,29.07,NW,305,26.7,-999.0,94,0.00,,,-99.99,,2013-12-08 04:42:00,
2013-12-07 19:47:00,33.6,31.5,29.06,NW,308,20.4,-999.0,91,0.00,,,-99.99,,2013-12-08 04:47:00,
2013-12-07 19:52:00,33.6,31.7,29.06,WNW,294,18.9,-999.0,92,0.00,,,-99.99,,2013-12-08 04:52:00,
2013-12-07 19:57:00,33.5,32.0,29.06,NW,306,20.8,-999.0,93,0.00,,,-99.99,,2013-12-08 04:57:00,
2013-12-07 20:01:00,33.5,31.8,29.07,WNW,298,20.8,-999.0,93,0.00,,,-99.99,,2013-12-08 05:01:00,
2013-12-07 20:02:00,33.5,31.7,29.07,West,267,9.6,-999.0,93,0.00,,,-99.99,,2013-12-08 05:02:00,
2013-12-07 20:03:00,33.4,31.6,29.07,NNW,348,11.8,-999.0,93,0.00,,,-99.99,,2013-12-08 05:03:00,
2013-12-07 20:05:00,33.4,31.6,29.07,WNW,297,20.0,-999.0,93,0.00,,,-99.99,,2013-12-08 05:05:00,
2013-12-07 20:07:00,33.3,31.6,29.07,NW,318,21.7,-999.0,93,0.00,,,-99.99,,2013-12-08 05:07:00,
2013-12-07 20:09:00,33.7,31.8,29.08,NW,306,26.3,-999.0,92,0.00,,,-99.99,,2013-12-08 05:09:00,
2013-12-07 20:14:00,33.2,31.4,29.06,NW,310,13.2,-999.0,92,0.00,,,-99.99,,2013-12-08 05:14:00,
2013-12-07 20:19:00,33.4,31.6,29.06,NW,307,22.4,-999.0,93,0.00,,,-99.99,,2013-12-08 05:19:00,
2013-12-07 20:24:00,33.6,31.6,29.07,WNW,298,21.5,-999.0,92,0.00,,,-99.99,,2013-12-08 05:24:00,
2013-12-07 20:29:00,33.4,31.6,29.07,WNW,294,22.5,-999.0,92,0.00,,,-99.99,,2013-12-08 05:29:00,
2013-12-07 20:34:00,33.4,32.0,29.07,WNW,292,6.9,-999.0,94,0.00,,,-99.99,,2013-12-08 05:34:00,
2013-12-07 20:39:00,33.5,31.8,29.07,WNW,298,22.0,-999.0,93,0.00,,,-99.99,,2013-12-08 05:39:00,
2013-12-07 20:44:00,33.3,31.8,29.06,WNW,286,15.7,-999.0,94,0.00,,,-99.99,,2013-12-08 05:44:00,
2013-12-07 20:49:00,33.4,31.8,29.06,NW,304,21.9,-999.0,93,0.00,,,-99.99,,2013-12-08 05:49:00,
2013-12-07 20:54:00,33.4,31.6,29.07,West,259,21.8,-999.0,93,0.00,,,-99.99,,2013-12-08 05:54:00,
2013-12-07 20:59:00,33.2,31.5,29.07,WNW,286,18.4,-999.0,93,0.00,,,-99.99,,2013-12-08 05:59:00,
2013-12-07 21:04:00,33.0,31.1,29.09,WNW,299,23.1,-999.0,92,0.00,,,-99.99,,2013-12-08 06:04:00,
2013-12-07 21:09:00,32.9,31.4,29.08,NW,310,22.3,-999.0,93,0.00,,,-99.99,,2013-12-08 06:09:00,
2013-12-07 21:14:00,32.9,31.4,29.07,WNW,297,21.1,-999.0,94,0.00,,,-99.99,,2013-12-08 06:14:00,
2013-12-07 21:19:00,32.7,31.3,29.07,WNW,298,20.3,-999.0,94,0.00,,,-99.99,,2013-12-08 06:19:00,
2013-12-07 21:24:00,32.8,31.5,29.10,NW,308,21.1,-999.0,94,0.00,,,-99.99,,2013-12-08 06:24:00,
2013-12-07 21:29:00,32.7,31.4,29.08,NW,317,25.1,-999.0,95,0.00,,,-99.99,,2013-12-08 06:29:00,
2013-12-07 21:34:00,32.7,31.3,29.08,NW,313,22.6,-999.0,94,0.00,,,-99.99,,2013-12-08 06:34:00,
2013-12-07 21:39:00,32.7,31.3,29.08,NW,310,20.9,-999.0,94,0.00,,,-99.99,,2013-12-08 06:39:00,
2013-12-07 21:44:00,32.8,31.4,29.07,NW,305,22.8,-999.0,94,0.00,,,-99.99,,2013-12-08 06:44:00,
2013-12-07 21:49:00,32.8,31.1,29.09,NW,310,22.5,-999.0,93,0.00,,,-99.99,,2013-12-08 06:49:00,
2013-12-07 21:54:00,32.5,31.2,29.08,SW,236,18.9,-999.0,94,0.00,,,-99.99,,2013-12-08 06:54:00,
2013-12-07 21:59:00,32.3,31.4,29.08,WNW,300,20.0,-999.0,96,0.00,,,-99.99,,2013-12-08 06:59:00,
2013-12-07 22:04:00,32.7,31.2,29.08,NW,314,24.3,-999.0,94,0.00,,,-99.99,,2013-12-08 07:04:00,
2013-12-07 22:09:00,32.8,31.0,29.07,NW,309,21.0,-999.0,92,0.00,,,-99.99,,2013-12-08 07:09:00,
2013-12-07 22:14:00,32.5,31.3,29.07,NW,306,22.5,-999.0,95,0.00,,,-99.99,,2013-12-08 07:14:00,
2013-12-07 22:19:00,32.8,31.2,29.08,NW,310,24.5,-999.0,93,0.00,,,-99.99,,2013-12-08 07:19:00,
2013-12-07 22:24:00,32.5,31.1,29.08,NW,310,21.3,-999.0,94,0.00,,,-99.99,,2013-12-08 07:24:00,
2013-12-07 22:29:00,32.6,31.2,29.08,NW,311,24.7,-999.0,94,0.00,,,-99.99,,2013-12-08 07:29:00,
2013-12-07 22:34:00,32.7,31.5,29.07,NW,315,24.9,-999.0,95,0.00,,,-99.99,,2013-12-08 07:34:00,
2013-12-07 22:39:00,32.6,31.3,29.08,NW,312,26.7,-999.0,94,0.00,,,-99.99,,2013-12-08 07:39:00,
2013-12-07 22:44:00,32.3,30.9,29.07,NW,305,24.0,-999.0,94,0.00,,,-99.99,,2013-12-08 07:44:00,
2013-12-07 22:49:00,32.5,31.1,29.08,NW,309,25.5,-999.0,94,0.00,,,-99.99,,2013-12-08 07:49:00,
2013-12-07 22:54:00,32.7,30.8,29.07,NW,313,24.2,-999.0,92,0.00,,,-99.99,,2013-12-08 07:54:00,
2013-12-07 22:59:00,32.6,30.9,29.08,NW,317,23.9,-999.0,93,0.00,,,-99.99,,2013-12-08 07:59:00,
2013-12-07 23:04:00,32.5,31.0,29.07,NW,313,25.4,-999.0,93,0.00,,,-99.99,,2013-12-08 08:04:00,
2013-12-07 23:09:00,32.5,31.0,29.08,NW,312,24.5,-999.0,93,0.00,,,-99.99,,2013-12-08 08:09:00,
2013-12-07 23:14:00,32.4,30.8,29.08,NW,309,22.5,-999.0,93,0.00,,,-99.99,,2013-12-08 08:14:00,
2013-12-07 23:19:00,32.5,30.6,29.08,NW,317,22.7,-999.0,92,0.00,,,-99.99,,2013-12-08 08:19:00,
2013-12-07 23:24:00,33.0,30.5,29.08,NW,318,23.9,-999.0,90,0.00,,,-99.99,,2013-12-08 08:24:00,
2013-12-07 23:29:00,33.0,30.4,29.08,NW,317,23.0,-999.0,90,0.00,,,-99.99,,2013-12-08 08:29:00,
2013-12-07 23:34:00,32.7,30.3,29.07,NW,319,25.4,-999.0,90,0.00,,,-99.99,,2013-12-08 08:34:00,
2013-12-07 23:39:00,32.7,30.3,29.07,NW,312,25.9,-999.0,91,0.00,,,-99.99,,2013-12-08 08:39:00,
2013-12-07 23:44:00,32.7,30.5,29.08,NW,316,24.6,-999.0,91,0.00,,,-99.99,,2013-12-08 08:44:00,
2013-12-07 23:49:00,32.6,30.2,29.08,NW,313,25.6,-999.0,90,0.00,,,-99.99,,2013-12-08 08:49:00,
2013-12-07 23:54:00,32.8,30.4,29.08,NW,316,23.8,-999.0,90,0.00,,,-99.99,,2013-12-08 08:54:00,
2013-12-07 23:59:00,32.7,30.3,29.08,NW,320,22.6,-999.0,90,0.00,,,-99.99,,2013-12-08 08:59:00,